Simultaneous Nadir Overpasses (SNOs) Predictions

Prediction of SNOs over PacNW region [( 10.00, 139.50) to ( 22.70, 165.60)] between AQUA and NPP Satellites:

Table of predicted SNOs over PacNW region for the next 30.0 days since TLE Epoch: 7/12/2015
Index Date (AQUA) Time (AQUA) AQUA Lat,Lon Date (NPP) Time (NPP) NPP Lat,Lon Distance(km) Time Diff (sec)
1 07/17/2015 02:41:18 17.40, 161.06 07/17/2015 02:39:16 17.12, 159.79 138.89 122
2 07/25/2015 03:29:17 12.68, 149.78 07/25/2015 03:28:33 12.37, 148.21 173.42 44
3 08/02/2015 02:40:49 16.97, 161.22 08/02/2015 02:38:54 16.70, 159.89 144.70 115




NCC Satellite Simultaneous Nadir Overpasses (SNOs) Prediction Service
